Starlink 2636

operational
NORAD ID: 48357 Int'l Des: 2021-038 Owner: SPXS Country: US Constellation: starlink
LEOCIRCULARSTARLINK_TYPE

Über Starlink 2636

Beschreibung wird geladen...

Live-Position

3D-Globus wird geladen...

Nächste Überflüge

Höhenverlauf

Altitude vs Time

uPlot chart will show altitude changes over time

Zweizeiliger Elementsatz

1 48357U 21038E 25343.46260987 .00001419 00000-0 11413-3 0 9998
2 48357 53.0541 47.0883 0001294 100.4347 259.6787 15.06409030253420
Epoch: 9. Dez. 2025 • Age: 8 hours

Aktueller Status

Höhe 549.1 km
Geschwindigkeit 7.59 km/s
Subsatellitenpunkt 34.32°N, 68.57°E
Startdatum 4. Mai 2021
Alter 4.5 years
Typ internet

Technische Details

Klassifizierung Payload
Masse 260.00 kg
Trockenmasse 248.00 kg
Gesamtmasse 260.00 kg
Länge 0.20 m
Durchmesser 2.80 m
Spannweite 9.00 m
Form Box + pan
Hersteller SPXS
Bus-Typ Starlink
Phasenstatus In Orbit
Besitzer/Staat SPXS/US

Große Konstellationen

Loading constellations...